Information on these data can be found in provided Readme document
Contact Info: Zachary Fasnacht (zachary.fasnacht@ssaihq.com); Nickolay Krotkov (nickolay.a.krotkov@nasa.gov); Lok Lamsal (lok.lamsal@nasa.gov)

FillValue: -999.
ScaleFactor: 1e15
Units: molecules/cm^2

Date(yyyy-mm-dd),City,Country,LonCenter,LatCenter,BoundingCoordinates,Median,Q1,Q3,Mean,Baseline_Median,Baseline_Q1,Baseline_Q3,Baseline_Mean,NumGoodSamples,NumTotalSamples
2015-01-01,Hobart,Tasmania,147.3167,-42.8667,[146.8167 -43.3667 147.8167 -42.3667],0.289,-0.029,0.657,0.334,0.311,0.006,0.602,0.314,225.0,709.0
2015-01-02,Hobart,Tasmania,147.3167,-42.8667,[146.8167 -43.3667 147.8167 -42.3667],0.257,-0.054,0.62,0.301,0.305,-0.014,0.611,0.308,210.0,697.0
2015-01-03,Hobart,Tasmania,147.3167,-42.8667,[146.8167 -43.3667 147.8167 -42.3667],0.3,-0.033,0.645,0.32,0.331,-0.008,0.662,0.323,231.0,706.0
2015-01-04,Hobart,Tasmania,147.3167,-42.8667,[146.8167 -43.3667 147.8167 -42.3667],0.388,0.055,0.726,0.388,0.345,0.004,0.683,0.335,203.0,704.0
2015-01-05,Hobart,Tasmania,147.3167,-42.8667,[146.8167 -43.3667 147.8167 -42.3667],0.353,0.055,0.674,0.36,0.342,0.026,0.659,0.324,220.0,708.0
2015-01-06,Hobart,Tasmania,147.3167,-42.8667,[146.8167 -43.3667 147.8167 -42.3667],0.353,0.055,0.674,0.36,0.335,0.011,0.654,0.321,220.0,702.0
2015-01-07,Hobart,Tasmania,147.3167,-42.8667,[146.8167 -43.3667 147.8167 -42.3667],0.353,0.055,0.674,0.366,0.317,-0.021,0.652,0.305,213.0,715.0
2015-01-08,Hobart,Tasmania,147.3167,-42.8667,[146.8167 -43.3667 147.8167 -42.3667],0.353,0.055,0.668,0.367,0.315,-0.026,0.64,0.299,214.0,702.0
2015-01-09,Hobart,Tasmania,147.3167,-42.8667,[146.8167 -43.3667 147.8167 -42.3667],0.329,0.064,0.674,0.376,0.317,-0.016,0.655,0.307,174.0,654.0
2015-01-10,Hobart,Tasmania,147.3167,-42.8667,[146.8167 -43.3667 147.8167 -42.3667],0.329,0.064,0.674,0.376,0.29,-0.032,0.641,0.292,174.0,579.0
2015-01-11,Hobart,Tasmania,147.3167,-42.8667,[146.8167 -43.3667 147.8167 -42.3667],0.389,0.125,0.753,0.448,0.291,-0.041,0.628,0.288,144.0,579.0
2015-01-12,Hobart,Tasmania,147.3167,-42.8667,[146.8167 -43.3667 147.8167 -42.3667],0.361,0.101,0.73,0.416,0.288,-0.032,0.624,0.283,181.0,580.0
2015-01-13,Hobart,Tasmania,147.3167,-42.8667,[146.8167 -43.3667 147.8167 -42.3667],0.294,0.09,0.665,0.363,0.273,-0.032,0.601,0.271,158.0,579.0
2015-01-14,Hobart,Tasmania,147.3167,-42.8667,[146.8167 -43.3667 147.8167 -42.3667],0.262,0.064,0.56,0.306,0.275,-0.053,0.624,0.281,144.0,583.0
2015-01-15,Hobart,Tasmania,147.3167,-42.8667,[146.8167 -43.3667 147.8167 -42.3667],0.275,0.1,0.601,0.314,0.273,-0.049,0.61,0.279,114.0,579.0
2015-01-16,Hobart,Tasmania,147.3167,-42.8667,[146.8167 -43.3667 147.8167 -42.3667],0.283,0.069,0.614,0.337,0.291,-0.03,0.644,0.301,140.0,578.0
2015-01-17,Hobart,Tasmania,147.3167,-42.8667,[146.8167 -43.3667 147.8167 -42.3667],0.348,0.055,0.56,0.318,0.307,-0.028,0.634,0.3,177.0,580.0
2015-01-18,Hobart,Tasmania,147.3167,-42.8667,[146.8167 -43.3667 147.8167 -42.3667],0.283,0.028,0.514,0.296,0.3,-0.024,0.62,0.296,156.0,567.0
2015-01-19,Hobart,Tasmania,147.3167,-42.8667,[146.8167 -43.3667 147.8167 -42.3667],0.284,0.03,0.514,0.3,0.287,-0.05,0.614,0.282,169.0,576.0
2015-01-20,Hobart,Tasmania,147.3167,-42.8667,[146.8167 -43.3667 147.8167 -42.3667],0.348,0.03,0.529,0.307,0.292,-0.031,0.625,0.295,132.0,574.0
2015-01-21,Hobart,Tasmania,147.3167,-42.8667,[146.8167 -43.3667 147.8167 -42.3667],0.348,0.03,0.517,0.303,0.308,-0.03,0.647,0.311,135.0,577.0
2015-01-22,Hobart,Tasmania,147.3167,-42.8667,[146.8167 -43.3667 147.8167 -42.3667],0.348,0.03,0.517,0.303,0.335,0.014,0.644,0.327,135.0,570.0
2015-01-23,Hobart,Tasmania,147.3167,-42.8667,[146.8167 -43.3667 147.8167 -42.3667],0.348,0.03,0.517,0.308,0.365,0.042,0.679,0.361,128.0,584.0
2015-01-24,Hobart,Tasmania,147.3167,-42.8667,[146.8167 -43.3667 147.8167 -42.3667],0.348,0.03,0.517,0.308,0.343,0.009,0.642,0.339,128.0,585.0
2015-01-25,Hobart,Tasmania,147.3167,-42.8667,[146.8167 -43.3667 147.8167 -42.3667],0.348,0.03,0.517,0.308,0.343,0.009,0.657,0.357,129.0,632.0
2015-01-26,Hobart,Tasmania,147.3167,-42.8667,[146.8167 -43.3667 147.8167 -42.3667],0.359,0.089,0.713,0.365,0.37,0.044,0.702,0.384,160.0,669.0
2015-01-27,Hobart,Tasmania,147.3167,-42.8667,[146.8167 -43.3667 147.8167 -42.3667],0.365,0.069,0.648,0.379,0.358,0.047,0.677,0.382,123.0,665.0
2015-01-28,Hobart,Tasmania,147.3167,-42.8667,[146.8167 -43.3667 147.8167 -42.3667],0.365,0.052,0.648,0.372,0.357,0.036,0.688,0.375,127.0,665.0
2015-01-29,Hobart,Tasmania,147.3167,-42.8667,[146.8167 -43.3667 147.8167 -42.3667],0.376,0.076,0.713,0.389,0.333,0.025,0.665,0.35,115.0,666.0
2015-01-30,Hobart,Tasmania,147.3167,-42.8667,[146.8167 -43.3667 147.8167 -42.3667],0.359,-0.02,0.591,0.345,0.346,-0.006,0.665,0.353,143.0,673.0
2015-01-31,Hobart,Tasmania,147.3167,-42.8667,[146.8167 -43.3667 147.8167 -42.3667],0.359,0.03,0.586,0.351,0.36,0.02,0.678,0.369,139.0,670.0
2015-02-01,Hobart,Tasmania,147.3167,-42.8667,[146.8167 -43.3667 147.8167 -42.3667],0.411,0.024,0.744,0.407,0.378,0.016,0.719,0.384,134.0,671.0
2015-02-02,Hobart,Tasmania,147.3167,-42.8667,[146.8167 -43.3667 147.8167 -42.3667],0.426,0.076,0.713,0.41,0.382,0.022,0.708,0.379,171.0,676.0
2015-02-03,Hobart,Tasmania,147.3167,-42.8667,[146.8167 -43.3667 147.8167 -42.3667],0.436,0.055,0.713,0.413,0.389,0.041,0.713,0.394,161.0,663.0
2015-02-04,Hobart,Tasmania,147.3167,-42.8667,[146.8167 -43.3667 147.8167 -42.3667],0.426,0.051,0.648,0.397,0.4,0.038,0.705,0.402,178.0,672.0
2015-02-05,Hobart,Tasmania,147.3167,-42.8667,[146.8167 -43.3667 147.8167 -42.3667],0.436,0.051,0.696,0.402,0.396,0.04,0.701,0.396,175.0,669.0
2015-02-06,Hobart,Tasmania,147.3167,-42.8667,[146.8167 -43.3667 147.8167 -42.3667],0.411,-0.021,0.696,0.399,0.387,0.026,0.7,0.391,204.0,672.0
2015-02-07,Hobart,Tasmania,147.3167,-42.8667,[146.8167 -43.3667 147.8167 -42.3667],0.411,-0.021,0.696,0.399,0.387,0.031,0.702,0.388,204.0,664.0
2015-02-08,Hobart,Tasmania,147.3167,-42.8667,[146.8167 -43.3667 147.8167 -42.3667],0.411,-0.021,0.696,0.399,0.409,0.042,0.711,0.396,204.0,677.0
2015-02-09,Hobart,Tasmania,147.3167,-42.8667,[146.8167 -43.3667 147.8167 -42.3667],0.411,-0.036,0.696,0.398,0.404,0.037,0.699,0.377,230.0,664.0
2015-02-10,Hobart,Tasmania,147.3167,-42.8667,[146.8167 -43.3667 147.8167 -42.3667],0.381,-0.056,0.616,0.362,0.394,0.029,0.673,0.359,202.0,619.0
2015-02-11,Hobart,Tasmania,147.3167,-42.8667,[146.8167 -43.3667 147.8167 -42.3667],0.381,-0.056,0.616,0.362,0.384,0.011,0.682,0.367,202.0,580.0
2015-02-12,Hobart,Tasmania,147.3167,-42.8667,[146.8167 -43.3667 147.8167 -42.3667],0.381,-0.056,0.626,0.367,0.403,0.025,0.701,0.386,198.0,577.0
2015-02-13,Hobart,Tasmania,147.3167,-42.8667,[146.8167 -43.3667 147.8167 -42.3667],0.381,-0.068,0.604,0.349,0.42,0.026,0.712,0.39,223.0,577.0
2015-02-14,Hobart,Tasmania,147.3167,-42.8667,[146.8167 -43.3667 147.8167 -42.3667],0.406,-0.053,0.629,0.382,0.439,0.05,0.759,0.427,195.0,575.0
2015-02-15,Hobart,Tasmania,147.3167,-42.8667,[146.8167 -43.3667 147.8167 -42.3667],0.406,-0.038,0.629,0.373,0.445,0.047,0.764,0.425,186.0,580.0
2015-02-16,Hobart,Tasmania,147.3167,-42.8667,[146.8167 -43.3667 147.8167 -42.3667],0.381,-0.053,0.604,0.355,0.455,0.069,0.771,0.432,154.0,577.0
2015-02-17,Hobart,Tasmania,147.3167,-42.8667,[146.8167 -43.3667 147.8167 -42.3667],0.378,-0.066,0.54,0.35,0.456,0.076,0.767,0.444,130.0,575.0
2015-02-18,Hobart,Tasmania,147.3167,-42.8667,[146.8167 -43.3667 147.8167 -42.3667],0.359,-0.053,0.54,0.343,0.424,0.071,0.749,0.429,145.0,578.0
2015-02-19,Hobart,Tasmania,147.3167,-42.8667,[146.8167 -43.3667 147.8167 -42.3667],0.36,-0.043,0.556,0.356,0.411,0.067,0.774,0.42,128.0,564.0
2015-02-20,Hobart,Tasmania,147.3167,-42.8667,[146.8167 -43.3667 147.8167 -42.3667],0.36,-0.043,0.556,0.356,0.409,0.065,0.794,0.427,128.0,575.0
2015-02-21,Hobart,Tasmania,147.3167,-42.8667,[146.8167 -43.3667 147.8167 -42.3667],0.383,0.101,0.54,0.345,0.418,0.094,0.814,0.442,99.0,572.0
2015-02-22,Hobart,Tasmania,147.3167,-42.8667,[146.8167 -43.3667 147.8167 -42.3667],0.393,0.103,0.54,0.365,0.409,0.098,0.822,0.441,104.0,575.0
2015-02-23,Hobart,Tasmania,147.3167,-42.8667,[146.8167 -43.3667 147.8167 -42.3667],0.383,0.101,0.54,0.33,0.427,0.106,0.805,0.442,112.0,568.0
2015-02-24,Hobart,Tasmania,147.3167,-42.8667,[146.8167 -43.3667 147.8167 -42.3667],0.459,0.199,0.711,0.411,0.437,0.122,0.844,0.46,122.0,580.0
2015-02-25,Hobart,Tasmania,147.3167,-42.8667,[146.8167 -43.3667 147.8167 -42.3667],0.415,0.134,0.677,0.372,0.437,0.104,0.813,0.448,135.0,583.0
2015-02-26,Hobart,Tasmania,147.3167,-42.8667,[146.8167 -43.3667 147.8167 -42.3667],0.415,0.134,0.677,0.376,0.442,0.113,0.819,0.46,145.0,617.0
2015-02-27,Hobart,Tasmania,147.3167,-42.8667,[146.8167 -43.3667 147.8167 -42.3667],0.383,0.116,0.651,0.361,0.411,0.082,0.766,0.429,172.0,627.0
2015-02-28,Hobart,Tasmania,147.3167,-42.8667,[146.8167 -43.3667 147.8167 -42.3667],0.415,0.136,0.677,0.387,0.411,0.077,0.758,0.427,147.0,624.0
2015-03-01,Hobart,Tasmania,147.3167,-42.8667,[146.8167 -43.3667 147.8167 -42.3667],0.383,0.1,0.676,0.353,0.399,0.065,0.717,0.394,175.0,625.0
2015-03-02,Hobart,Tasmania,147.3167,-42.8667,[146.8167 -43.3667 147.8167 -42.3667],0.383,0.069,0.663,0.344,0.397,0.048,0.711,0.377,162.0,626.0
2015-03-03,Hobart,Tasmania,147.3167,-42.8667,[146.8167 -43.3667 147.8167 -42.3667],0.349,0.042,0.645,0.318,0.386,0.041,0.703,0.367,184.0,629.0
2015-03-04,Hobart,Tasmania,147.3167,-42.8667,[146.8167 -43.3667 147.8167 -42.3667],0.321,0.011,0.651,0.299,0.382,0.036,0.679,0.354,176.0,624.0
2015-03-05,Hobart,Tasmania,147.3167,-42.8667,[146.8167 -43.3667 147.8167 -42.3667],0.336,0.069,0.651,0.327,0.395,0.049,0.686,0.363,177.0,624.0
2015-03-06,Hobart,Tasmania,147.3167,-42.8667,[146.8167 -43.3667 147.8167 -42.3667],0.305,0.011,0.598,0.288,0.37,0.034,0.676,0.341,212.0,630.0
2015-03-07,Hobart,Tasmania,147.3167,-42.8667,[146.8167 -43.3667 147.8167 -42.3667],0.305,0.011,0.598,0.288,0.343,0.011,0.642,0.317,212.0,614.0
2015-03-08,Hobart,Tasmania,147.3167,-42.8667,[146.8167 -43.3667 147.8167 -42.3667],0.302,0.02,0.593,0.271,0.336,0.006,0.636,0.296,226.0,624.0
2015-03-09,Hobart,Tasmania,147.3167,-42.8667,[146.8167 -43.3667 147.8167 -42.3667],0.285,0.011,0.592,0.261,0.334,-0.003,0.637,0.297,221.0,622.0
2015-03-10,Hobart,Tasmania,147.3167,-42.8667,[146.8167 -43.3667 147.8167 -42.3667],0.286,0.02,0.593,0.274,0.348,-0.001,0.649,0.301,213.0,625.0
2015-03-11,Hobart,Tasmania,147.3167,-42.8667,[146.8167 -43.3667 147.8167 -42.3667],0.233,-0.058,0.518,0.206,0.36,0.002,0.652,0.316,188.0,620.0
2015-03-12,Hobart,Tasmania,147.3167,-42.8667,[146.8167 -43.3667 147.8167 -42.3667],0.239,-0.011,0.526,0.225,0.339,-0.011,0.665,0.308,172.0,632.0
2015-03-13,Hobart,Tasmania,147.3167,-42.8667,[146.8167 -43.3667 147.8167 -42.3667],0.239,-0.048,0.518,0.198,0.343,-0.009,0.663,0.306,170.0,631.0
2015-03-14,Hobart,Tasmania,147.3167,-42.8667,[146.8167 -43.3667 147.8167 -42.3667],0.202,-0.058,0.507,0.189,0.354,0.005,0.677,0.321,161.0,616.0
2015-03-15,Hobart,Tasmania,147.3167,-42.8667,[146.8167 -43.3667 147.8167 -42.3667],0.202,-0.058,0.507,0.189,0.337,0.034,0.683,0.33,161.0,576.0
2015-03-16,Hobart,Tasmania,147.3167,-42.8667,[146.8167 -43.3667 147.8167 -42.3667],0.239,-0.058,0.483,0.184,0.367,0.062,0.681,0.349,133.0,572.0
2015-03-17,Hobart,Tasmania,147.3167,-42.8667,[146.8167 -43.3667 147.8167 -42.3667],0.202,-0.111,0.464,0.164,0.355,0.053,0.663,0.346,159.0,572.0
2015-03-18,Hobart,Tasmania,147.3167,-42.8667,[146.8167 -43.3667 147.8167 -42.3667],0.209,-0.111,0.5,0.167,0.376,0.058,0.673,0.356,137.0,574.0
2015-03-19,Hobart,Tasmania,147.3167,-42.8667,[146.8167 -43.3667 147.8167 -42.3667],0.239,-0.058,0.5,0.176,0.384,0.066,0.682,0.36,135.0,580.0
2015-03-20,Hobart,Tasmania,147.3167,-42.8667,[146.8167 -43.3667 147.8167 -42.3667],0.18,-0.235,0.435,0.09,0.383,0.045,0.668,0.353,116.0,576.0
2015-03-21,Hobart,Tasmania,147.3167,-42.8667,[146.8167 -43.3667 147.8167 -42.3667],0.207,-0.147,0.474,0.154,0.37,0.052,0.666,0.353,115.0,574.0
2015-03-22,Hobart,Tasmania,147.3167,-42.8667,[146.8167 -43.3667 147.8167 -42.3667],0.209,-0.147,0.474,0.154,0.385,0.057,0.677,0.364,116.0,580.0
2015-03-23,Hobart,Tasmania,147.3167,-42.8667,[146.8167 -43.3667 147.8167 -42.3667],0.19,-0.177,0.518,0.176,0.384,0.071,0.692,0.375,103.0,568.0
2015-03-24,Hobart,Tasmania,147.3167,-42.8667,[146.8167 -43.3667 147.8167 -42.3667],0.262,-0.147,0.568,0.227,0.38,0.069,0.68,0.372,122.0,576.0
2015-03-25,Hobart,Tasmania,147.3167,-42.8667,[146.8167 -43.3667 147.8167 -42.3667],0.262,-0.147,0.568,0.227,0.382,0.066,0.689,0.371,122.0,573.0
2015-03-26,Hobart,Tasmania,147.3167,-42.8667,[146.8167 -43.3667 147.8167 -42.3667],0.262,-0.147,0.568,0.223,0.364,0.053,0.661,0.341,110.0,575.0
2015-03-27,Hobart,Tasmania,147.3167,-42.8667,[146.8167 -43.3667 147.8167 -42.3667],0.273,-0.147,0.593,0.235,0.356,0.038,0.657,0.328,119.0,567.0
2015-03-28,Hobart,Tasmania,147.3167,-42.8667,[146.8167 -43.3667 147.8167 -42.3667],0.273,-0.045,0.608,0.266,0.349,0.043,0.672,0.349,111.0,582.0
2015-03-29,Hobart,Tasmania,147.3167,-42.8667,[146.8167 -43.3667 147.8167 -42.3667],0.273,-0.053,0.593,0.257,0.355,0.035,0.695,0.358,94.0,579.0
2015-03-30,Hobart,Tasmania,147.3167,-42.8667,[146.8167 -43.3667 147.8167 -42.3667],0.273,-0.147,0.594,0.249,0.344,-0.0,0.675,0.34,99.0,613.0
2015-03-31,Hobart,Tasmania,147.3167,-42.8667,[146.8167 -43.3667 147.8167 -42.3667],0.345,-0.03,0.632,0.307,0.338,0.001,0.648,0.33,122.0,626.0
2015-04-01,Hobart,Tasmania,147.3167,-42.8667,[146.8167 -43.3667 147.8167 -42.3667],0.393,0.123,0.723,0.379,0.327,0.002,0.659,0.33,96.0,625.0
2015-04-02,Hobart,Tasmania,147.3167,-42.8667,[146.8167 -43.3667 147.8167 -42.3667],0.393,0.123,0.685,0.381,0.331,-0.004,0.653,0.329,117.0,627.0
2015-04-03,Hobart,Tasmania,147.3167,-42.8667,[146.8167 -43.3667 147.8167 -42.3667],0.415,0.083,0.658,0.38,0.316,-0.022,0.638,0.317,114.0,628.0
2015-04-04,Hobart,Tasmania,147.3167,-42.8667,[146.8167 -43.3667 147.8167 -42.3667],0.415,0.083,0.658,0.38,0.291,-0.035,0.62,0.306,114.0,632.0
2015-04-05,Hobart,Tasmania,147.3167,-42.8667,[146.8167 -43.3667 147.8167 -42.3667],0.415,0.177,0.75,0.424,0.282,-0.023,0.662,0.308,92.0,628.0
2015-04-06,Hobart,Tasmania,147.3167,-42.8667,[146.8167 -43.3667 147.8167 -42.3667],0.393,0.083,0.748,0.379,0.284,-0.038,0.65,0.299,115.0,628.0
2015-04-07,Hobart,Tasmania,147.3167,-42.8667,[146.8167 -43.3667 147.8167 -42.3667],0.332,-0.061,0.748,0.378,0.274,-0.062,0.656,0.299,143.0,632.0
2015-04-08,Hobart,Tasmania,147.3167,-42.8667,[146.8167 -43.3667 147.8167 -42.3667],0.316,-0.109,0.769,0.361,0.262,-0.072,0.682,0.296,125.0,621.0
2015-04-09,Hobart,Tasmania,147.3167,-42.8667,[146.8167 -43.3667 147.8167 -42.3667],0.332,-0.061,0.769,0.386,0.267,-0.066,0.683,0.303,137.0,630.0
2015-04-10,Hobart,Tasmania,147.3167,-42.8667,[146.8167 -43.3667 147.8167 -42.3667],0.332,-0.061,0.769,0.386,0.271,-0.065,0.687,0.303,137.0,628.0
2015-04-11,Hobart,Tasmania,147.3167,-42.8667,[146.8167 -43.3667 147.8167 -42.3667],0.332,-0.061,0.795,0.4,0.279,-0.092,0.675,0.308,132.0,633.0
2015-04-12,Hobart,Tasmania,147.3167,-42.8667,[146.8167 -43.3667 147.8167 -42.3667],0.355,-0.061,0.862,0.404,0.28,-0.098,0.668,0.288,153.0,626.0
2015-04-13,Hobart,Tasmania,147.3167,-42.8667,[146.8167 -43.3667 147.8167 -42.3667],0.316,-0.061,0.795,0.389,0.253,-0.096,0.643,0.279,175.0,640.0
2015-04-14,Hobart,Tasmania,147.3167,-42.8667,[146.8167 -43.3667 147.8167 -42.3667],0.316,-0.061,0.795,0.386,0.276,-0.073,0.66,0.298,181.0,641.0
2015-04-15,Hobart,Tasmania,147.3167,-42.8667,[146.8167 -43.3667 147.8167 -42.3667],0.274,-0.162,0.769,0.346,0.26,-0.095,0.634,0.275,165.0,622.0
2015-04-16,Hobart,Tasmania,147.3167,-42.8667,[146.8167 -43.3667 147.8167 -42.3667],0.274,-0.162,0.769,0.346,0.258,-0.098,0.632,0.267,165.0,580.0
2015-04-17,Hobart,Tasmania,147.3167,-42.8667,[146.8167 -43.3667 147.8167 -42.3667],0.257,-0.259,0.786,0.334,0.255,-0.126,0.625,0.258,144.0,535.0
2015-04-18,Hobart,Tasmania,147.3167,-42.8667,[146.8167 -43.3667 147.8167 -42.3667],0.257,-0.259,0.786,0.33,0.257,-0.122,0.629,0.259,145.0,535.0
2015-04-19,Hobart,Tasmania,147.3167,-42.8667,[146.8167 -43.3667 147.8167 -42.3667],0.257,-0.259,0.786,0.33,0.284,-0.141,0.642,0.267,145.0,537.0
2015-04-20,Hobart,Tasmania,147.3167,-42.8667,[146.8167 -43.3667 147.8167 -42.3667],0.178,-0.259,0.766,0.307,0.273,-0.14,0.64,0.266,139.0,544.0
2015-04-21,Hobart,Tasmania,147.3167,-42.8667,[146.8167 -43.3667 147.8167 -42.3667],0.177,-0.204,0.766,0.306,0.268,-0.151,0.643,0.261,146.0,540.0
2015-04-22,Hobart,Tasmania,147.3167,-42.8667,[146.8167 -43.3667 147.8167 -42.3667],0.197,-0.134,0.766,0.308,0.265,-0.15,0.646,0.261,140.0,538.0
2015-04-23,Hobart,Tasmania,147.3167,-42.8667,[146.8167 -43.3667 147.8167 -42.3667],0.355,-0.075,0.734,0.345,0.301,-0.163,0.643,0.25,176.0,542.0
2015-04-24,Hobart,Tasmania,147.3167,-42.8667,[146.8167 -43.3667 147.8167 -42.3667],0.319,-0.077,0.703,0.332,0.308,-0.16,0.649,0.264,168.0,527.0
2015-04-25,Hobart,Tasmania,147.3167,-42.8667,[146.8167 -43.3667 147.8167 -42.3667],0.319,-0.077,0.703,0.332,0.297,-0.162,0.652,0.26,168.0,534.0
2015-04-26,Hobart,Tasmania,147.3167,-42.8667,[146.8167 -43.3667 147.8167 -42.3667],0.313,-0.077,0.678,0.31,0.294,-0.164,0.666,0.269,164.0,531.0
2015-04-27,Hobart,Tasmania,147.3167,-42.8667,[146.8167 -43.3667 147.8167 -42.3667],0.313,-0.077,0.648,0.298,0.286,-0.22,0.649,0.246,143.0,533.0
2015-04-28,Hobart,Tasmania,147.3167,-42.8667,[146.8167 -43.3667 147.8167 -42.3667],0.319,-0.11,0.678,0.288,0.262,-0.216,0.645,0.238,131.0,528.0
2015-04-29,Hobart,Tasmania,147.3167,-42.8667,[146.8167 -43.3667 147.8167 -42.3667],0.368,-0.11,0.703,0.319,0.246,-0.264,0.673,0.221,124.0,539.0
2015-04-30,Hobart,Tasmania,147.3167,-42.8667,[146.8167 -43.3667 147.8167 -42.3667],0.319,-0.11,0.703,0.318,0.275,-0.263,0.692,0.238,130.0,541.0
2015-05-01,Hobart,Tasmania,147.3167,-42.8667,[146.8167 -43.3667 147.8167 -42.3667],0.319,-0.11,0.703,0.318,0.281,-0.263,0.726,0.25,130.0,575.0
2015-05-02,Hobart,Tasmania,147.3167,-42.8667,[146.8167 -43.3667 147.8167 -42.3667],0.319,-0.11,0.703,0.318,0.283,-0.265,0.727,0.262,130.0,617.0
2015-05-03,Hobart,Tasmania,147.3167,-42.8667,[146.8167 -43.3667 147.8167 -42.3667],0.319,-0.11,0.703,0.321,0.287,-0.25,0.763,0.286,129.0,613.0
2015-05-04,Hobart,Tasmania,147.3167,-42.8667,[146.8167 -43.3667 147.8167 -42.3667],0.319,-0.11,0.703,0.284,0.289,-0.237,0.754,0.284,151.0,612.0
2015-05-05,Hobart,Tasmania,147.3167,-42.8667,[146.8167 -43.3667 147.8167 -42.3667],0.405,-0.072,0.72,0.314,0.317,-0.228,0.757,0.293,145.0,611.0
2015-05-06,Hobart,Tasmania,147.3167,-42.8667,[146.8167 -43.3667 147.8167 -42.3667],0.405,-0.072,0.72,0.326,0.354,-0.212,0.833,0.3,118.0,618.0
2015-05-07,Hobart,Tasmania,147.3167,-42.8667,[146.8167 -43.3667 147.8167 -42.3667],0.369,-0.072,0.72,0.312,0.273,-0.333,0.789,0.234,95.0,616.0
2015-05-08,Hobart,Tasmania,147.3167,-42.8667,[146.8167 -43.3667 147.8167 -42.3667],0.129,-0.288,0.72,0.17,0.267,-0.363,0.81,0.246,71.0,614.0
2015-05-09,Hobart,Tasmania,147.3167,-42.8667,[146.8167 -43.3667 147.8167 -42.3667],0.188,-0.288,0.631,0.18,0.197,-0.33,0.735,0.25,103.0,620.0
2015-05-10,Hobart,Tasmania,147.3167,-42.8667,[146.8167 -43.3667 147.8167 -42.3667],0.188,-0.268,0.665,0.198,0.204,-0.322,0.763,0.253,107.0,607.0
2015-05-11,Hobart,Tasmania,147.3167,-42.8667,[146.8167 -43.3667 147.8167 -42.3667],0.188,-0.268,0.665,0.205,0.192,-0.338,0.733,0.236,144.0,611.0
2015-05-12,Hobart,Tasmania,147.3167,-42.8667,[146.8167 -43.3667 147.8167 -42.3667],0.188,-0.268,0.665,0.205,0.222,-0.335,0.772,0.256,144.0,610.0
2015-05-13,Hobart,Tasmania,147.3167,-42.8667,[146.8167 -43.3667 147.8167 -42.3667],0.188,-0.26,0.631,0.206,0.222,-0.343,0.742,0.251,135.0,611.0
2015-05-14,Hobart,Tasmania,147.3167,-42.8667,[146.8167 -43.3667 147.8167 -42.3667],0.166,-0.28,0.585,0.188,0.237,-0.345,0.769,0.269,131.0,606.0
2015-05-15,Hobart,Tasmania,147.3167,-42.8667,[146.8167 -43.3667 147.8167 -42.3667],0.16,-0.312,0.639,0.227,0.187,-0.409,0.762,0.243,143.0,617.0
2015-05-16,Hobart,Tasmania,147.3167,-42.8667,[146.8167 -43.3667 147.8167 -42.3667],0.188,-0.312,0.639,0.232,0.192,-0.375,0.754,0.253,161.0,620.0
2015-05-17,Hobart,Tasmania,147.3167,-42.8667,[146.8167 -43.3667 147.8167 -42.3667],0.188,-0.306,0.672,0.27,0.198,-0.381,0.755,0.253,173.0,613.0
2015-05-18,Hobart,Tasmania,147.3167,-42.8667,[146.8167 -43.3667 147.8167 -42.3667],0.188,-0.306,0.672,0.27,0.183,-0.351,0.755,0.244,173.0,574.0
2015-05-19,Hobart,Tasmania,147.3167,-42.8667,[146.8167 -43.3667 147.8167 -42.3667],0.188,-0.312,0.675,0.294,0.193,-0.427,0.776,0.248,151.0,573.0
2015-05-20,Hobart,Tasmania,147.3167,-42.8667,[146.8167 -43.3667 147.8167 -42.3667],0.237,-0.26,0.803,0.354,0.183,-0.414,0.807,0.26,157.0,574.0
2015-05-21,Hobart,Tasmania,147.3167,-42.8667,[146.8167 -43.3667 147.8167 -42.3667],0.26,-0.268,0.836,0.368,0.143,-0.443,0.778,0.237,153.0,571.0
2015-05-22,Hobart,Tasmania,147.3167,-42.8667,[146.8167 -43.3667 147.8167 -42.3667],0.188,-0.291,0.707,0.313,0.178,-0.402,0.779,0.285,171.0,574.0
2015-05-23,Hobart,Tasmania,147.3167,-42.8667,[146.8167 -43.3667 147.8167 -42.3667],0.191,-0.233,0.856,0.38,0.164,-0.39,0.8,0.292,183.0,572.0
2015-05-24,Hobart,Tasmania,147.3167,-42.8667,[146.8167 -43.3667 147.8167 -42.3667],0.218,-0.233,0.959,0.394,0.172,-0.416,0.805,0.246,159.0,572.0
2015-05-25,Hobart,Tasmania,147.3167,-42.8667,[146.8167 -43.3667 147.8167 -42.3667],0.237,-0.271,0.959,0.401,0.197,-0.409,0.851,0.296,166.0,578.0
2015-05-26,Hobart,Tasmania,147.3167,-42.8667,[146.8167 -43.3667 147.8167 -42.3667],0.274,-0.271,1.114,0.473,0.241,-0.363,0.988,0.348,130.0,569.0
2015-05-27,Hobart,Tasmania,147.3167,-42.8667,[146.8167 -43.3667 147.8167 -42.3667],0.218,-0.225,1.114,0.515,0.239,-0.361,0.991,0.358,158.0,575.0
2015-05-28,Hobart,Tasmania,147.3167,-42.8667,[146.8167 -43.3667 147.8167 -42.3667],0.237,-0.271,1.114,0.522,0.265,-0.371,0.982,0.363,156.0,575.0
2015-05-29,Hobart,Tasmania,147.3167,-42.8667,[146.8167 -43.3667 147.8167 -42.3667],0.198,-0.272,1.031,0.464,0.217,-0.378,0.922,0.327,173.0,577.0
2015-05-30,Hobart,Tasmania,147.3167,-42.8667,[146.8167 -43.3667 147.8167 -42.3667],0.237,-0.271,1.051,0.502,0.279,-0.394,0.939,0.352,155.0,572.0
2015-05-31,Hobart,Tasmania,147.3167,-42.8667,[146.8167 -43.3667 147.8167 -42.3667],0.218,-0.271,1.051,0.521,0.307,-0.374,1.012,0.378,141.0,582.0
2015-06-01,Hobart,Tasmania,147.3167,-42.8667,[146.8167 -43.3667 147.8167 -42.3667],0.198,-0.272,1.031,0.478,0.295,-0.382,0.967,0.347,144.0,582.0
2015-06-02,Hobart,Tasmania,147.3167,-42.8667,[146.8167 -43.3667 147.8167 -42.3667],0.259,-0.272,1.031,0.528,0.281,-0.408,0.889,0.339,153.0,617.0
2015-06-03,Hobart,Tasmania,147.3167,-42.8667,[146.8167 -43.3667 147.8167 -42.3667],0.448,-0.201,1.148,0.601,0.322,-0.357,0.954,0.374,167.0,621.0
2015-06-04,Hobart,Tasmania,147.3167,-42.8667,[146.8167 -43.3667 147.8167 -42.3667],0.406,-0.261,1.148,0.559,0.37,-0.316,0.97,0.402,161.0,617.0
2015-06-05,Hobart,Tasmania,147.3167,-42.8667,[146.8167 -43.3667 147.8167 -42.3667],0.424,-0.261,1.148,0.571,0.409,-0.26,1.003,0.438,174.0,618.0
2015-06-06,Hobart,Tasmania,147.3167,-42.8667,[146.8167 -43.3667 147.8167 -42.3667],0.675,-0.201,1.164,0.669,0.47,-0.236,1.001,0.451,156.0,617.0
2015-06-07,Hobart,Tasmania,147.3167,-42.8667,[146.8167 -43.3667 147.8167 -42.3667],0.661,-0.261,1.15,0.64,0.463,-0.263,1.012,0.446,131.0,621.0
2015-06-08,Hobart,Tasmania,147.3167,-42.8667,[146.8167 -43.3667 147.8167 -42.3667],0.723,-0.2,1.15,0.69,0.538,-0.18,1.05,0.489,133.0,619.0
2015-06-09,Hobart,Tasmania,147.3167,-42.8667,[146.8167 -43.3667 147.8167 -42.3667],0.723,-0.184,1.15,0.688,0.496,-0.245,1.017,0.447,122.0,619.0
2015-06-10,Hobart,Tasmania,147.3167,-42.8667,[146.8167 -43.3667 147.8167 -42.3667],0.723,-0.184,1.15,0.69,0.469,-0.283,0.968,0.421,126.0,625.0
2015-06-11,Hobart,Tasmania,147.3167,-42.8667,[146.8167 -43.3667 147.8167 -42.3667],0.743,0.073,1.15,0.711,0.463,-0.245,0.962,0.409,101.0,613.0
2015-06-12,Hobart,Tasmania,147.3167,-42.8667,[146.8167 -43.3667 147.8167 -42.3667],0.723,-0.095,1.15,0.646,0.509,-0.19,1.005,0.45,117.0,621.0
2015-06-13,Hobart,Tasmania,147.3167,-42.8667,[146.8167 -43.3667 147.8167 -42.3667],0.85,0.162,1.357,0.779,0.497,-0.205,1.031,0.428,100.0,620.0